Location: Glion
(46.4330°N, 6.9246°E)
Time: 05:22:58
(UTC+00:00)

Cosmos 2360 Rocket - Pass Details

Date: 03 March 2021
Orbit: 833 x 846 km, 71.0° (Epoch: 22 April)

Event Time Altitude Azimuth Distance (km) Brightness Sun altitude
Rises 20:21:28 0° 247° (WSW) 3,385 5.9 -31.1°
Reaches altitude 10° 20:24:23 10° 261° (W) 2,457 5.2 -31.5°
Maximum altitude 20:28:51 24° 314° (NW) 1,698 4.3 -32.2°
Drops below altitude 10° 20:33:22 10° 6° (N) 2,474 4.8 -32.9°
Sets 20:36:20 0° 21° (NNE) 3,414 5.5 -33.3°
